Simultaneous Nadir Overpasses (SNOs) Predictions

Prediction of SNOs between GOES-15 and METOP-C Satellite Orbit:

Table of predicted SNOs for the next 14.0 days since TLE Epoch: 6/16/2022
Index Date Time (GOES-15) GOES-15 Lat,Lon METOP-C Lat,Lon Distance(km) Time Diff (sec)
1 06/16/2022 05:50:02 0.23,-128.34 0.90,-125.23 354.57 80
2 06/17/2022 18:11:33 -0.21,-128.41 0.12,-129.79 157.97 80
3 06/18/2022 17:48:15 -0.23,-128.42 -1.04,-124.81 411.99 80
4 06/20/2022 06:09:56 0.21,-128.40 0.02,-129.41 114.47 80
5 06/21/2022 05:46:37 0.23,-128.41 1.12,-124.42 455.34 80
6 06/22/2022 18:08:08 -0.21,-128.47 -0.10,-128.98 57.28 80
7 06/25/2022 06:06:29 0.20,-128.46 0.15,-128.58 14.08 80
8 06/27/2022 18:02:01 -0.20,-128.52 -0.29,-128.16 41.44 80
9 06/29/2022 06:23:42 0.17,-128.49 -0.75,-132.75 485.15 80
